This is the latest recevied weather packets stored in our database for station/object 9W2UHF-10. If no packets are shown the sender has not sent any weather packets the latest 10 day(s).
| Time | Temp. | Humidity | Pressure | Rain* | Wind** | Luminosity | Snow |
|---|---|---|---|---|---|---|---|
| 1788152196 | 92° F | 59% | 760.3 mmHg | - | - | - | - |
| 1788150996 | 92° F | 61% | 760.5 mmHg | - | - | - | - |
| 1788149795 | 91° F | 61% | 760.6 mmHg | - | - | - | - |
| 1788148595 | 90° F | 63% | 760.8 mmHg | - | - | - | - |
| 1788147936 | 87° F | 71% | 761.4 mmHg | - | - | - | - |
| 1788146196 | 89° F | 66% | 761.2 mmHg | - | - | - | - |
| 1788144996 | 88° F | 68% | 761.3 mmHg | - | - | - | - |
| 1788143796 | 88° F | 70% | 761.5 mmHg | - | - | - | - |
| 1788142596 | 88° F | 68% | 761.7 mmHg | - | - | - | - |
| 1788142229 | 87° F | 70% | 761.1 mmHg | - | - | - | - |
| 1788141396 | 88° F | 70% | 761.6 mmHg | - | - | - | - |
| 1788140196 | 87° F | 73% | 761.7 mmHg | - | - | - | - |
| 1788139411 | 87° F | 70% | 760.9 mmHg | - | - | - | - |
| 1788138996 | 87° F | 72% | 761.5 mmHg | - | - | - | - |
| 1788137796 | 87° F | 71% | 761.4 mmHg | - | - | - | - |
| 1788136596 | 87° F | 70% | 761.1 mmHg | - | - | - | - |
| 1788136242 | 87° F | 70% | 760.9 mmHg | - | - | - | - |
| 1788135396 | 87° F | 70% | 760.9 mmHg | - | - | - | - |
| 1788134196 | 87° F | 70% | 760.9 mmHg | - | - | - | - |
| 1788133040 | 87° F | 69% | 760.6 mmHg | - | - | - | - |
| 1788132996 | 87° F | 69% | 760.6 mmHg | - | - | - | - |
| 1788131973 | 87° F | 69% | 760.4 mmHg | - | - | - | - |
| 1788131795 | 87° F | 69% | 760.4 mmHg | - | - | - | - |
| 1788130595 | 87° F | 69% | 760.3 mmHg | - | - | - | - |
| 1788129395 | 87° F | 68% | 760.2 mmHg | - | - | - | - |
* Rain since midnight (hover to see other rain measurements)
** Current wind speed in m/s (hover to see current wind gust speed)